Wetbulb
54.25 54.33 54.39 54.55 54.54 54.70 54.73 55.12 55.52 55.77 55.92 56.23 56.38 56.48 56.39 56.32 55.98 55.35 52.52 53.98 55.04 60.92 59.03 51.55 52.21 53.92 54.98 55.46 56.76 57.23 51.04 49.82 50.87 50.86 51.98 55.62 53.62 56.06 57.41 55.14 56.81 59.23 61.25 65.87 68.26
54.03 54.20 54.32 54.27 54.45 54.54 54.65 55.06 55.59 55.78 56.03 56.31 56.23 56.27 56.18 56.21 53.56 53.10 56.11 57.18 59.03 60.23 53.32 51.45 49.25 51.21 50.57 52.23 54.45 52.34 49.99 50.65 54.80 55.05 53.95 55.48 55.30 55.11 54.58 54.36 55.01 57.71 62.64 64.86 67.06
53.73 54.06 54.08 54.05 54.23 54.19 54.50 54.96 55.48 55.85 56.22 56.60 56.41 56.26 56.20 55.79 53.05 51.89 59.03 57.75 59.29 58.96 54.04 53.27 53.12 51.34 48.15 50.91 51.79 52.46 49.93 53.92 54.89 56.34 56.62 55.68 55.60 56.72 54.21 53.03 55.26 57.30 59.82 63.72 64.60
53.57 53.61 53.86 53.76 53.89 54.02 54.16 54.77 55.39 55.99 56.11 56.29 56.20 56.33 56.50 54.42 44.65 55.10 61.45 60.35 61.19 58.08 54.80 51.77 50.75 48.35 47.41 46.80 50.30 48.58 52.50 54.24 55.44 56.75 56.28 55.46 57.79 56.50 55.96 55.35 57.73 58.57 61.33 63.45 64.05
53.11 53.45 53.53 53.52 53.60 53.83 54.02 54.49 55.01 55.46 55.64 55.86 56.48 57.07 55.35 53.18 50.08 57.05 62.53 60.92 57.86 56.75 53.17 50.26 47.91 49.23 46.69 48.27 49.41 47.81 49.88 52.69 54.39 55.39 56.43 57.07 55.61 56.06 56.68 58.16 58.79 59.02 59.62 62.32 64.32
52.89 52.87 53.02 53.37 53.22 53.49 54.02 54.38 54.69 54.77 54.93 55.76 56.60 56.89 53.88 49.49 54.16 55.46 55.63 55.63 54.78 53.78 52.46 52.31 49.58 49.43 46.99 47.45 48.30 50.00 49.77 50.20 52.02 52.84 54.61 54.16 55.02 55.91 57.45 60.00 59.37 59.66 59.21 60.61 63.52
53.27 52.86 52.63 52.80 52.95 53.28 54.05 54.28 54.40 54.68 55.20 56.17 57.28 55.80 53.93 50.46 54.35 55.52 55.45 53.85 54.60 53.89 51.12 52.80 52.64 49.80 48.82 46.10 49.99 49.46 46.98 49.05 50.01 50.75 51.43 53.82 51.24 53.02 57.76 58.90 58.59 59.52 59.91 60.22 60.96
53.71 53.43 52.63 52.61 52.86 53.17 53.69 54.22 54.19 54.82 56.34 56.63 57.67 55.46 51.89 53.98 54.97 53.53 53.52 52.60 54.42 54.08 52.93 53.72 53.46 50.19 47.78 49.05 46.94 44.39 46.00 42.93 48.55 49.58 50.86 50.69 45.96 52.87 56.13 57.06 57.44 58.44 59.64 60.43 61.42
53.58 53.17 52.61 52.59 52.59 53.00 53.60 53.62 53.85 55.85 56.90 56.82 54.94 54.98 49.42 55.86 51.45 52.60 52.99 50.78 51.32 51.87 52.62 52.87 51.59 48.04 47.78 43.61 41.66 42.67 37.99 40.70 43.78 49.86 49.30 48.85 46.63 52.53 55.61 55.56 56.01 57.85 58.86 59.58 60.86
53.56 53.02 52.17 52.28 52.54 52.84 52.97 52.87 55.96 55.87 56.73 58.07 56.76 50.04 52.79 48.34 50.99 51.39 53.40 52.14 49.58 50.21 49.76 49.82 48.32 45.35 45.75 42.91 35.65 38.89 39.68 41.05 40.76 44.96 47.04 47.21 47.71 51.05 53.44 53.55 55.19 57.13 58.99 59.44 59.93
53.04 53.02 52.88 52.55 52.55 52.59 52.66 55.77 52.10 51.78 54.59 49.68 48.17 48.29 48.76 51.43 52.51 50.30 52.07 49.71 49.84 48.57 44.01 46.88 42.66 40.56 43.84 45.62 45.14 43.20 41.80 41.00 43.50 45.92 44.70 44.95 47.37 49.63 52.75 53.26 52.79 55.17 57.27 58.70 59.86
52.52 52.57 52.94 52.71 52.65 52.69 52.22 52.52 50.64 52.08 45.67 50.93 50.37 49.74 50.38 50.91 46.27 49.47 51.69 46.34 45.93 42.09 44.73 42.88 40.13 44.43 45.55 45.06 43.57 42.60 40.52 39.89 42.74 44.94 44.53 44.17 43.89 47.99 51.38 52.28 53.93 54.39 55.48 56.79 59.06
52.34 52.57 52.80 52.60 52.63 52.18 54.50 52.50 55.44 55.18 45.95 48.32 49.04 48.02 48.67 49.53 46.27 46.98 49.20 46.90 43.87 41.62 42.10 39.92 41.84 44.73 43.13 42.06 41.12 41.36 39.80 40.05 39.80 42.98 43.91 42.70 41.70 45.37 49.14 52.26 53.53 54.99 56.91 57.48 57.83
52.12 52.22 52.37 51.81 50.36 54.60 53.80 55.99 56.31 55.57 41.50 43.34 45.21 47.78 48.22 48.42 45.47 50.00 50.19 46.57 43.86 40.85 42.11 40.96 43.70 42.41 41.59 40.21 41.46 37.63 42.75 41.73 40.61 39.04 34.63 42.58 34.57 43.53 46.95 49.23 51.74 53.19 54.72 56.96 57.71
52.20 52.20 52.03 51.15 52.31 53.19 53.87 56.72 55.99 53.26 32.60 44.26 45.02 51.42 48.68 45.81 46.76 47.42 50.28 46.97 41.97 41.91 42.10 39.61 41.53 41.62 40.51 40.75 43.13 39.86 43.51 41.62 41.00 39.25 38.33 38.30 35.65 39.89 45.44 45.91 49.99 52.48 53.94 56.27 57.52
52.06 52.10 51.88 54.80 54.50 55.94 56.21 56.61 54.82 41.30 32.37 41.16 44.97 44.03 44.25 46.18 46.43 47.07 46.94 48.89 47.83 43.27 43.47 42.34 45.88 44.32 43.09 44.23 44.27 44.61 41.78 41.09 40.90 39.10 31.97 36.73 36.32 37.40 41.10 44.90 48.61 52.64 54.31 55.67 56.73
51.76 51.63 50.36 55.15 52.90 56.41 56.28 52.98 40.53 35.91 43.79 40.97 41.73 44.18 43.33 42.94 43.50 44.16 42.81 42.50 40.31 36.99 37.04 40.64 40.84 43.69 44.87 40.94 43.74 41.74 37.90 29.69 28.32 30.19 30.17 38.28 36.03 38.75 44.24 46.77 48.35 50.66 53.72 55.50 57.13
50.34 49.93 53.37 55.19 57.48 56.69 53.70 46.04 35.31 41.57 41.19 44.55 43.53 43.18 41.24 43.17 42.63 42.67 42.05 39.98 43.46 41.48 37.47 34.16 32.31 39.87 43.70 40.02 37.35 38.22 38.11 31.02 22.67 25.22 30.46 37.88 32.71 37.67 46.66 48.64 49.76 52.06 54.21 55.33 55.45
49.34 56.40 55.66 57.74 57.37 55.67 47.79 38.84 39.41 40.82 43.06 41.43 42.43 40.23 40.36 42.37 41.98 41.77 41.10 40.34 42.31 43.02 35.44 34.70 34.18 42.61 43.04 43.38 42.69 39.06 35.53 41.06 33.79 35.61 30.74 34.22 37.92 43.01 46.38 47.11 49.39 50.50 52.59 53.84 56.65
50.39 53.50 54.48 56.92 57.06 52.06 44.26 39.89 42.31 44.75 43.74 43.22 37.52 41.18 37.10 39.54 39.62 39.91 39.74 42.79 41.17 43.90 43.46 38.34 32.53 40.03 42.00 43.41 43.50 41.77 43.40 34.75 35.72 25.52 24.27 31.62 33.50 34.92 42.08 44.90 47.72 49.20 51.45 54.05 56.48
51.68 50.31 55.14 56.44 54.99 48.49 41.39 41.38 43.34 45.13 44.13 41.60 40.22 38.85 39.63 38.51 39.91 38.78 38.98 42.26 44.21 43.12 44.17 41.60 37.51 36.41 40.43 38.51 37.57 38.04 37.89 38.75 37.94 33.30 26.24 26.76 31.97 44.11 43.18 46.31 45.14 50.81 52.31 54.29 55.48
50.99 45.41 55.10 55.10 45.65 46.82 42.21 42.86 42.96 43.28 46.05 44.61 44.30 41.80 40.03 40.14 38.49 38.15 38.00 41.29 45.14 44.41 39.30 41.94 37.85 32.40 35.55 42.14 42.89 41.31 38.90 37.91 30.91 30.59 34.81 33.12 33.17 44.72 45.36 46.73 46.02 47.65 52.28 54.52 54.88
47.96 48.64 55.20 53.49 42.22 42.10 44.58 44.12 45.43 42.68 43.42 42.99 41.45 43.17 43.28 40.02 36.47 39.36 40.51 45.00 45.33 43.44 40.23 41.47 35.96 29.37 32.61 37.50 38.41 35.62 39.12 39.88 39.30 38.14 32.74 29.86 33.12 44.18 44.07 44.01 45.01 44.68 51.20 53.26 53.71
48.43 43.81 49.24 49.42 49.54 44.34 42.53 42.29 42.08 45.27 43.34 44.45 42.87 43.88 42.08 39.78 41.73 38.50 39.88 42.96 44.87 43.54 46.16 44.39 37.27 32.80 28.62 32.97 37.62 33.54 36.40 39.31 38.47 32.82 34.11 33.75 35.01 40.11 40.65 41.06 42.97 44.81 47.65 52.26 52.16
48.50 45.47 47.14 41.45 42.49 43.05 43.76 43.32 41.36 40.75 44.68 44.88 42.10 42.31 40.83 37.25 38.53 38.02 40.64 41.74 43.14 45.13 44.21 41.97 35.26 36.95 37.72 38.63 38.68 37.40 37.40 38.43 36.59 38.08 33.53 36.12 36.37 40.46 41.58 42.38 43.77 46.30 48.50 50.51 50.63
43.65 42.36 44.30 42.29 44.03 43.18 44.07 42.20 42.24 42.23 42.39 40.75 39.68 41.71 41.62 37.98 39.04 37.50 40.48 40.62 39.52 42.95 41.89 43.35 35.46 37.90 35.08 38.86 38.80 36.57 38.44 38.84 39.36 38.99 38.03 38.05 37.62 44.21 45.89 45.30 45.26 46.90 48.65 49.20 50.33
47.32 48.57 42.99 40.25 43.02 41.63 42.20 41.45 41.74 43.08 42.68 43.64 42.69 41.30 40.00 41.86 45.15 45.15 45.35 44.97 43.99 41.09 40.51 39.88 37.56 34.70 30.18 36.76 36.44 31.87 36.97 38.46 38.90 41.69 40.88 36.40 40.50 45.13 45.25 45.97 46.62 47.63 49.44 49.79 50.71
MSLP
1020.14 1019.71 1019.29 1018.91 1018.52 1018.16 1017.78 1017.39 1016.99 1016.65 1016.33 1016.00 1015.60 1015.14 1014.78 1014.45 1013.89 1012.52 1011.56 1011.00 1010.82 1010.75 1010.52 1009.53 1008.76 1007.80 1007.50 1007.08 1006.57 1006.09 1005.04 1002.97 1001.87 1000.98 1000.14 999.12 998.35 998.04 997.76 997.50 996.89 996.57 996.64 997.25 997.14
1020.17 1019.68 1019.25 1018.83 1018.42 1018.05 1017.67 1017.26 1016.87 1016.51 1016.09 1015.68 1015.32 1015.00 1014.62 1014.41 1013.53 1011.41 1010.88 1010.73 1010.53 1010.61 1009.92 1008.53 1007.82 1007.38 1006.95 1006.26 1006.17 1005.50 1004.10 1002.56 1001.87 1000.81 999.76 998.96 998.45 998.17 997.87 997.49 997.26 997.14 997.08 997.59 997.93
1020.24 1019.71 1019.20 1018.74 1018.36 1017.98 1017.60 1017.22 1016.81 1016.34 1015.80 1015.33 1014.98 1014.67 1014.50 1014.16 1011.93 1010.24 1010.72 1010.51 1010.34 1010.43 1009.95 1008.71 1007.69 1007.06 1006.01 1005.69 1005.14 1004.73 1002.69 1002.85 1001.66 1000.74 1000.18 999.59 998.82 998.70 998.52 997.61 997.00 996.83 997.03 997.16 997.62
1020.27 1019.74 1019.25 1018.75 1018.28 1017.84 1017.41 1017.00 1016.56 1016.04 1015.54 1015.14 1014.76 1014.26 1014.13 1013.55 1010.33 1009.91 1010.22 1010.13 1010.10 1010.03 1009.17 1008.01 1007.18 1006.57 1005.79 1005.02 1004.45 1003.78 1002.99 1002.68 1001.79 1001.01 1000.32 999.84 999.24 998.39 998.80 998.28 997.37 997.01 996.83 996.77 997.30
1020.32 1019.77 1019.23 1018.68 1018.17 1017.69 1017.17 1016.68 1016.15 1015.60 1015.08 1014.69 1014.52 1014.15 1013.26 1011.19 1008.72 1009.27 1009.52 1009.49 1009.21 1008.52 1007.90 1007.08 1006.49 1005.86 1005.07 1004.56 1004.13 1002.76 1002.45 1001.96 1001.51 1000.89 1000.31 1000.09 999.39 999.09 998.68 998.83 998.20 997.47 996.79 996.53 997.06
1020.28 1019.72 1019.17 1018.59 1017.98 1017.41 1016.90 1016.43 1015.97 1015.46 1014.96 1014.50 1014.29 1014.07 1012.96 1009.49 1008.08 1008.18 1008.38 1008.01 1007.64 1007.55 1007.33 1006.83 1006.23 1005.84 1005.12 1004.35 1003.35 1002.90 1002.07 1001.27 1000.78 1000.15 1000.03 999.61 999.08 999.29 998.44 998.87 998.54 997.90 997.08 997.14 997.80
1020.17 1019.65 1019.10 1018.47 1017.79 1017.09 1016.57 1016.11 1015.63 1015.03 1014.42 1014.04 1014.00 1013.51 1011.13 1008.41 1008.05 1007.88 1007.57 1007.49 1007.25 1007.61 1007.34 1006.92 1006.73 1006.58 1005.67 1004.71 1003.57 1003.31 1002.20 1001.38 1000.15 999.58 999.00 999.62 998.76 997.54 998.28 998.61 998.66 998.43 997.59 996.98 997.23
1019.97 1019.47 1018.89 1018.28 1017.63 1016.92 1016.21 1015.62 1015.13 1014.62 1013.99 1013.72 1013.72 1012.95 1009.72 1008.00 1007.97 1007.49 1007.51 1007.07 1006.98 1006.98 1006.94 1007.05 1007.18 1006.79 1006.35 1005.60 1004.20 1003.58 1002.54 1000.86 999.31 1000.17 998.63 999.58 997.09 997.19 997.93 997.83 997.82 998.41 997.95 997.23 996.95
1019.79 1019.23 1018.59 1017.90 1017.25 1016.61 1015.93 1015.31 1014.79 1014.10 1013.73 1013.57 1013.30 1011.74 1008.15 1008.02 1007.77 1007.78 1007.54 1007.14 1007.10 1006.81 1006.60 1006.44 1006.79 1006.61 1006.12 1005.28 1004.25 1003.25 1001.82 1000.89 999.63 999.18 998.59 998.91 997.33 996.72 997.18 997.05 997.00 997.41 997.62 997.46 996.98
1019.48 1018.94 1018.30 1017.62 1016.84 1016.11 1015.39 1014.31 1013.71 1013.83 1013.28 1012.51 1011.54 1010.31 1007.94 1007.31 1007.64 1007.74 1007.15 1007.14 1007.01 1006.69 1006.32 1005.62 1005.52 1005.41 1004.80 1004.27 1002.85 1002.24 1001.21 1000.31 999.21 999.04 998.64 997.77 996.71 995.96 996.32 996.62 996.30 996.47 996.57 996.66 996.78
1019.38 1018.67 1017.95 1017.22 1016.48 1015.79 1014.90 1012.91 1013.02 1012.90 1011.67 1009.82 1008.88 1008.15 1007.62 1007.58 1007.68 1007.22 1006.65 1006.99 1006.48 1006.27 1005.58 1005.17 1004.84 1004.18 1003.48 1003.04 1002.54 1002.30 1001.63 1000.59 999.85 999.39 998.90 997.91 996.65 995.17 995.14 995.39 995.46 995.56 995.74 995.89 995.83
1019.21 1018.45 1017.63 1016.84 1016.09 1015.42 1015.23 1012.38 1011.69 1011.45 1010.23 1008.88 1008.20 1008.01 1007.86 1007.82 1007.54 1006.70 1006.78 1006.97 1006.56 1006.11 1005.72 1005.13 1004.16 1003.63 1003.34 1003.15 1003.02 1002.84 1002.37 1001.66 1001.19 1000.89 1000.30 998.52 997.17 995.59 994.79 994.26 994.26 994.46 994.89 995.33 995.57
1018.85 1017.99 1017.18 1016.46 1015.71 1014.82 1012.90 1011.87 1011.49 1010.93 1010.26 1007.70 1007.52 1007.33 1007.06 1007.25 1007.05 1006.68 1006.91 1006.92 1006.62 1006.33 1005.85 1005.33 1004.84 1004.39 1003.97 1003.43 1003.07 1002.85 1002.66 1002.20 1001.78 1001.44 1001.01 999.74 998.05 996.57 995.10 994.50 993.88 993.69 993.52 994.10 994.78
1018.60 1017.70 1016.90 1016.19 1015.83 1012.04 1011.30 1011.47 1011.08 1011.27 1009.86 1007.70 1007.12 1006.75 1007.00 1006.86 1006.16 1006.53 1006.71 1007.21 1007.04 1006.54 1006.11 1005.70 1005.11 1004.53 1004.12 1003.72 1003.67 1002.69 1002.86 1002.37 1002.05 1001.76 1000.86 1000.49 998.17 997.03 995.83 994.71 994.02 993.76 993.41 992.99 993.49
1018.35 1017.42 1016.64 1016.50 1014.55 1011.71 1011.81 1011.41 1011.47 1011.37 1009.00 1007.16 1006.41 1006.99 1006.93 1006.80 1006.36 1005.89 1006.41 1006.81 1006.52 1006.11 1006.01 1005.18 1004.61 1004.45 1004.19 1003.80 1003.47 1002.86 1002.82 1002.81 1002.64 1002.09 1001.48 1000.56 999.31 996.70 996.81 994.63 993.76 993.46 993.19 992.58 992.61
1018.02 1017.17 1016.55 1014.69 1014.05 1011.84 1011.47 1011.56 1011.37 1010.50 1007.72 1006.53 1006.48 1006.25 1006.06 1005.69 1005.52 1005.67 1005.75 1005.86 1005.30 1005.00 1004.79 1004.43 1004.50 1004.63 1004.59 1004.94 1004.77 1004.41 1003.92 1003.37 1003.04 1002.63 1001.15 1000.40 999.84 997.02 996.53 995.20 993.82 992.71 992.21 992.01 992.09
1017.45 1016.73 1016.47 1014.67 1012.28 1011.76 1011.75 1011.14 1010.39 1008.38 1007.32 1006.50 1006.42 1006.43 1006.25 1005.64 1005.40 1005.30 1005.57 1005.09 1004.59 1004.38 1004.46 1004.51 1004.48 1005.29 1006.00 1005.82 1005.24 1004.64 1005.11 1004.78 1003.84 1002.46 1000.70 1000.13 999.16 997.22 996.29 995.23 994.07 992.58 991.49 990.97 991.10
1016.85 1016.01 1014.68 1013.84 1012.48 1012.30 1011.99 1011.17 1009.58 1007.82 1007.15 1007.35 1007.28 1006.95 1005.69 1005.09 1005.27 1005.41 1005.18 1004.66 1004.55 1004.95 1005.25 1005.41 1004.90 1005.28 1006.65 1006.97 1006.18 1005.76 1004.54 1004.56 1003.79 1003.20 1000.89 999.68 998.46 997.78 996.29 995.10 993.78 992.52 991.45 991.14 991.03
1016.47 1013.96 1013.72 1012.57 1012.71 1012.66 1012.27 1010.59 1008.95 1008.32 1008.44 1008.46 1007.99 1006.64 1005.87 1005.56 1005.62 1005.46 1005.16 1005.01 1005.43 1005.94 1006.90 1006.57 1005.94 1006.02 1005.84 1005.30 1005.02 1004.41 1004.20 1004.20 1003.88 1002.99 1002.02 1000.81 998.77 998.04 996.32 994.90 993.58 992.49 991.51 990.84 990.76
1016.53 1013.94 1012.26 1012.38 1012.64 1012.85 1012.13 1010.48 1009.12 1008.76 1009.23 1009.16 1008.61 1007.69 1007.40 1006.94 1006.52 1006.24 1005.92 1005.79 1006.37 1007.18 1008.26 1008.18 1006.51 1006.49 1005.68 1005.14 1005.09 1004.67 1004.18 1003.81 1003.84 1003.67 1002.36 1000.10 998.47 997.46 996.63 995.42 993.92 992.51 991.46 991.26 991.00
1015.63 1012.79 1012.48 1012.58 1012.67 1012.40 1011.68 1010.35 1009.36 1009.45 1009.88 1009.77 1009.24 1009.08 1008.57 1008.08 1007.72 1007.45 1007.12 1006.71 1007.32 1007.77 1007.81 1007.69 1007.93 1006.96 1006.11 1004.84 1004.14 1004.15 1003.17 1003.28 1003.73 1004.64 1003.36 1000.42 997.84 997.21 998.73 997.43 996.35 993.07 992.05 991.42 991.06
1015.28 1012.50 1012.43 1012.40 1012.19 1011.50 1010.87 1010.27 1010.40 1009.89 1009.87 1009.60 1009.50 1009.52 1009.25 1009.01 1008.79 1008.55 1008.05 1007.63 1007.83 1007.97 1008.11 1008.58 1008.71 1007.46 1006.33 1005.42 1005.38 1004.78 1003.08 1003.75 1004.13 1003.12 1002.17 1000.54 997.82 998.50 999.10 999.55 999.18 996.31 992.97 991.52 991.71
1015.50 1012.89 1012.41 1012.41 1011.86 1011.49 1011.19 1010.41 1009.82 1009.95 1009.98 1009.88 1009.88 1009.75 1009.72 1009.36 1009.02 1008.95 1008.59 1008.35 1008.84 1008.73 1009.09 1009.75 1008.87 1008.00 1006.15 1005.56 1005.96 1005.68 1004.37 1003.70 1003.56 1003.44 1002.04 1000.93 998.42 999.46 1000.70 1000.94 1000.54 998.42 995.50 992.89 992.47
1016.39 1013.42 1012.09 1011.77 1011.89 1011.90 1011.35 1010.81 1009.98 1009.72 1009.85 1010.04 1009.95 1009.75 1009.31 1009.21 1008.95 1008.61 1008.29 1008.36 1008.88 1009.02 1009.33 1009.44 1009.04 1008.68 1007.47 1006.19 1005.20 1005.34 1004.77 1003.49 1002.41 1001.91 1000.75 999.74 999.34 1000.15 1002.69 1003.46 1002.33 1000.27 996.74 993.13 992.77
1017.05 1015.07 1014.62 1013.38 1013.06 1012.95 1012.32 1011.34 1010.25 1009.73 1009.72 1009.85 1009.83 1009.48 1009.12 1008.94 1008.68 1008.57 1008.23 1008.33 1008.63 1008.88 1008.68 1008.98 1008.50 1007.96 1006.85 1005.83 1004.79 1003.49 1002.85 1001.51 1000.69 1000.02 999.42 999.00 998.79 998.88 1000.64 1002.48 1002.01 999.92 997.79 994.70 993.02
1018.52 1017.80 1016.69 1015.47 1014.20 1013.21 1011.98 1011.28 1010.37 1010.24 1010.75 1010.52 1010.38 1009.81 1009.69 1009.54 1008.86 1007.95 1007.95 1008.15 1008.33 1008.63 1008.43 1008.91 1008.40 1007.74 1006.43 1005.68 1004.34 1003.14 1002.55 1001.56 999.43 999.00 998.69 998.41 998.45 998.43 997.84 998.98 999.56 997.85 996.68 994.44 993.10
1019.95 1018.75 1018.65 1016.63 1014.32 1012.94 1012.02 1011.95 1011.53 1011.42 1011.51 1010.86 1010.44 1010.32 1009.75 1008.96 1008.33 1007.95 1007.86 1007.66 1007.71 1008.06 1008.15 1008.66 1008.46 1008.11 1006.32 1005.24 1004.83 1003.81 1003.08 1001.56 1000.67 999.01 998.65 999.04 999.27 999.22 998.21 998.26 997.48 996.91 994.98 993.78 993.22
Wind_Speed
17 18 18 18 17 17 17 17 17 17 16 16 17 17 17 17 20 20 15 4 5 8 11 12 14 13 15 17 19 20 17 18 23 22 18 16 16 16 18 18 18 12 14 10 10
18 18 18 18 18 18 18 18 17 17 17 17 17 17 16 16 18 18 6 3 6 9 9 11 13 15 14 17 14 19 18 26 23 21 17 18 17 14 16 18 18 15 7 6 4
18 18 18 19 19 18 18 18 18 18 18 18 17 17 15 15 12 10 8 1 7 9 13 16 13 16 18 18 20 22 26 24 25 23 20 23 22 13 18 21 19 16 19 11 9
19 19 19 19 19 19 18 18 18 18 18 17 16 17 14 11 2 8 9 7 12 12 12 12 13 16 18 21 22 27 29 26 28 24 24 26 26 20 18 22 23 20 18 12 14
19 19 19 19 19 19 18 18 19 19 20 19 15 15 10 8 4 11 12 14 15 15 14 9 13 14 19 20 22 29 27 26 25 25 25 26 28 25 20 21 24 25 23 13 11
19 20 20 20 20 20 19 18 17 18 19 19 15 13 8 13 4 2 6 9 6 7 10 11 9 13 19 21 22 22 27 26 26 26 26 28 27 22 25 21 22 24 23 11 14
18 19 21 21 21 21 19 18 17 20 20 18 12 9 12 4 3 5 8 6 5 5 8 10 14 12 14 17 23 22 26 25 27 25 26 24 28 33 22 22 23 24 23 22 16
18 18 20 21 21 22 22 20 21 20 16 13 9 8 9 6 6 6 11 11 5 8 10 7 9 13 13 16 24 21 22 22 24 27 28 21 28 29 24 21 22 24 22 21 22
19 19 21 21 22 22 21 21 21 19 10 7 7 10 8 7 4 9 10 7 10 10 11 8 7 11 13 14 16 16 21 25 26 23 24 27 32 28 22 24 23 20 20 21 21
20 20 20 21 23 22 22 25 11 8 9 10 11 9 8 3 9 10 6 5 10 10 12 13 12 13 13 13 15 17 20 20 25 24 26 26 28 29 26 26 23 22 21 23 24
23 23 21 21 21 20 14 7 5 7 13 13 13 11 10 5 8 7 3 7 11 9 13 12 12 13 17 16 19 20 21 24 25 26 27 23 25 29 23 25 26 21 19 19 21
26 25 24 22 20 18 10 8 8 9 11 15 13 9 6 5 7 8 4 9 13 12 15 13 14 14 15 16 19 20 20 23 23 24 23 25 29 30 24 24 23 24 22 19 24
25 26 25 22 18 11 10 8 8 10 8 5 2 6 7 4 11 12 4 10 12 14 15 15 17 19 20 20 21 19 21 21 23 21 21 26 28 28 28 24 21 18 22 22 24
25 26 25 21 7 5 1 7 9 8 7 8 8 2 4 5 15 3 9 4 10 15 15 15 18 19 19 20 23 22 20 23 22 21 18 19 18 23 23 25 21 22 23 19 22
26 26 24 10 11 5 9 9 9 5 3 4 6 6 4 8 10 5 3 7 15 17 14 16 18 16 18 21 20 21 21 22 23 23 22 23 17 19 23 26 21 22 26 21 15
26 26 21 6 7 6 7 8 6 6 0 3 2 4 9 9 13 4 11 12 19 20 18 17 8 14 14 16 21 21 21 23 22 19 20 24 23 21 20 24 24 22 23 22 18
29 25 13 11 8 9 9 8 6 6 5 3 8 13 14 16 7 5 7 15 13 11 13 16 13 5 11 15 20 17 6 5 10 15 18 25 25 19 24 24 29 28 17 14 19
32 25 6 8 8 8 8 8 5 6 7 14 11 16 19 2 8 6 14 14 13 11 13 15 16 12 5 7 21 26 13 13 17 16 18 20 11 15 25 24 29 25 19 16 22
30 5 7 7 4 5 7 6 5 12 12 12 15 12 10 11 12 11 14 11 9 13 12 16 15 19 20 23 14 16 16 18 19 23 16 19 23 15 25 24 25 25 22 5 7
10 9 2 4 3 4 5 9 12 8 10 11 14 8 14 17 14 12 13 12 9 12 3 11 21 18 21 23 14 23 18 18 10 16 19 16 18 14 19 14 23 23 17 13 10
5 6 6 5 2 5 4 10 13 13 11 7 12 14 14 13 15 15 16 15 15 14 14 16 12 17 20 19 18 10 17 14 16 8 6 13 13 7 14 20 21 20 18 15 8
7 4 6 2 5 4 6 6 7 10 7 11 8 10 11 13 15 15 18 14 13 16 16 9 7 13 20 14 19 27 12 5 4 10 13 12 20 16 15 24 28 34 10 9 8
8 6 5 2 3 7 10 11 14 4 9 11 10 14 10 13 12 9 16 14 16 10 7 6 5 13 13 2 4 8 21 20 14 11 13 15 15 16 23 27 30 29 17 7 7
7 5 2 4 2 7 12 14 9 5 6 8 9 14 12 12 12 11 17 8 11 16 16 11 13 15 14 20 21 5 19 24 17 11 14 13 14 10 13 16 25 29 27 2 5
4 4 6 6 9 14 12 14 14 11 10 8 12 16 14 15 18 16 13 18 16 17 10 4 13 16 20 22 23 24 21 23 25 26 14 15 16 15 10 11 16 21 28 19 7
5 6 8 12 11 12 11 11 17 10 15 16 15 16 13 14 17 22 20 17 16 15 11 7 12 17 23 23 24 20 20 25 29 22 19 18 15 11 10 16 20 24 27 13 7
4 1 3 9 10 11 8 12 16 13 8 12 13 18 18 18 19 19 19 21 19 18 18 10 7 9 11 14 14 16 15 15 22 23 15 14 13 16 11 14 7 22 15 12 8
Wind_Direction
344 343 341 338 336 334 332 328 326 323 318 313 310 309 310 312 307 279 241 8 356 338 316 280 272 260 247 242 251 250 254 253 253 250 263 274 276 288 275 282 291 304 310 57 54
343 340 338 336 333 332 329 327 324 320 315 311 310 307 309 314 297 272 107 107 355 338 302 259 251 240 233 247 225 237 244 241 249 259 270 279 277 259 273 252 252 259 239 117 161
342 339 337 333 331 329 326 324 320 316 314 312 310 309 312 310 279 103 172 184 279 284 270 276 273 272 252 234 237 229 244 247 255 263 257 269 279 268 274 272 258 216 246 204 211
343 340 337 333 328 326 323 322 319 316 313 309 310 307 313 281 358 104 176 223 243 258 263 254 251 246 249 248 240 244 247 245 258 263 280 282 284 271 256 275 286 289 227 218 215
342 338 335 331 326 324 321 320 319 316 312 310 310 312 305 229 57 149 197 223 245 241 253 273 265 256 251 251 250 249 247 252 256 256 256 268 267 272 265 256 273 282 285 245 181
342 340 336 331 325 321 317 313 309 305 300 298 304 306 260 277 28 341 266 276 317 323 310 303 280 285 289 282 265 262 261 260 253 249 257 252 256 254 250 262 267 277 279 264 199
340 337 334 330 325 319 314 309 306 303 296 290 291 281 273 298 297 283 272 322 303 314 305 309 327 309 299 292 248 263 273 275 265 263 253 251 261 250 249 233 249 258 266 271 250
339 334 332 329 322 317 312 311 308 305 289 273 276 274 276 86 334 305 330 305 286 307 279 254 279 286 280 279 287 280 271 268 247 249 256 259 260 249 258 249 231 248 260 265 265
339 335 331 326 321 314 308 304 299 294 271 254 246 225 280 132 223 347 309 320 321 299 308 282 260 270 280 266 258 243 259 261 267 256 253 239 254 253 249 249 246 227 242 254 261
335 334 330 325 318 313 312 291 276 267 236 220 252 254 254 311 359 301 290 302 305 299 281 248 232 257 249 245 255 269 257 251 253 258 268 263 245 247 244 255 252 242 231 230 238
335 331 325 321 314 312 325 312 223 196 237 278 300 288 282 359 307 288 353 292 299 269 292 322 304 279 283 274 291 303 291 284 284 294 297 285 263 266 240 234 239 249 238 250 254
331 329 325 321 311 308 287 294 33 324 303 283 270 265 281 275 291 298 317 302 315 305 308 289 273 284 283 267 267 275 288 287 289 292 291 286 281 279 269 255 237 230 228 238 258
330 328 325 320 314 285 252 33 325 323 287 310 252 242 255 254 276 298 319 297 297 308 305 307 303 304 294 289 281 268 268 275 284 294 283 285 281 276 271 276 259 272 233 216 236
331 330 328 322 292 297 41 351 334 3 273 133 187 161 244 249 263 280 257 304 295 299 307 302 289 283 280 274 280 282 281 277 281 280 275 276 272 266 269 262 264 272 273 232 217
330 330 328 312 315 322 357 339 347 254 234 137 106 99 254 239 284 252 154 255 274 285 283 290 295 325 306 294 302 283 300 293 288 286 285 269 264 266 270 264 252 232 258 255 240
329 328 332 232 226 305 332 328 256 252 63 141 189 251 288 302 288 318 258 257 264 260 254 265 307 274 292 313 303 306 291 288 276 276 261 266 264 264 258 266 267 261 230 244 239
328 324 316 313 334 351 330 280 249 273 122 72 348 321 318 283 341 294 296 280 291 317 310 318 315 45 350 307 297 271 231 302 275 267 266 257 251 258 265 259 261 266 269 239 227
326 317 249 262 318 346 303 274 277 329 337 2 332 308 275 247 282 272 272 293 321 347 318 313 303 344 98 283 287 283 308 287 277 282 280 300 278 301 299 262 266 273 267 261 267
317 249 235 213 326 324 291 252 310 7 356 330 315 305 332 333 335 327 309 325 336 0 348 315 302 313 300 294 289 288 277 276 291 280 280 282 277 259 260 269 254 256 258 222 274
316 292 203 80 60 290 263 270 293 13 349 327 300 313 335 318 321 329 314 330 21 327 113 269 306 311 294 289 310 272 263 281 278 275 263 265 273 258 311 332 255 260 246 277 219
248 242 96 328 295 245 259 286 328 359 329 321 327 312 311 324 325 327 313 322 9 329 323 329 327 303 301 280 287 286 268 262 258 169 235 277 270 259 356 348 334 272 208 216 137
297 305 98 296 253 284 255 356 300 297 311 269 283 305 306 322 315 306 299 322 331 338 324 352 286 293 295 326 6 326 280 348 233 263 275 290 283 25 345 344 337 327 243 120 110
303 290 137 249 319 332 325 312 303 294 321 321 300 297 310 287 299 302 300 306 334 331 341 342 293 308 295 205 43 303 316 299 288 285 229 263 287 6 13 353 336 329 321 223 98
294 333 0 287 271 299 333 314 314 315 261 279 292 288 293 304 285 287 284 322 318 318 315 289 256 258 275 283 288 266 271 276 273 225 269 287 311 320 37 336 326 309 320 338 67
339 328 26 307 334 319 299 300 299 306 314 317 306 301 301 315 309 309 288 305 304 308 293 279 272 275 275 284 289 296 263 264 241 255 271 283 285 270 196 191 278 278 275 290 284
354 341 344 296 311 293 286 303 308 327 340 310 295 292 330 292 285 294 301 296 293 296 306 312 281 285 286 289 291 295 304 297 288 274 274 271 267 323 223 180 211 254 258 285 304
346 233 347 287 283 309 322 324 310 317 312 294 321 318 302 297 311 309 295 285 274 268 278 288 290 319 286 281 286 283 310 308 322 310 336 345 337 315 323 316 306 310 319 311 302